Location: �clusier
(49.9361°N, 2.7869°E)
Time: 21:28:27
(UTC+00:00)

ATLAS CENTAUR R/B - Pass Details

Date: 29 October 2021
Orbit: 459 x 682 km, 64.7° (Epoch: 25 November)

Event Time Altitude Azimuth Distance (km) Brightness Sun altitude
Exits shadow 04:04:28 14° 351° (N) 1,708 3.8 -24.4°
Drops below altitude 10° 04:06:38 10° 20° (NNE) 1,999 4.5 -24.1°
Sets 04:10:02 0° 45° (NE) 2,957 5.8 -23.5°
